Tracking 30995 objects as of 5-Jul-2025
HD Live streaming from Space Station
objects crossing your sky now

COSMOS 1809

Track COSMOS 1809 now!
10-day predictions
COSMOS 1809 is classified as:


NORAD ID: 17241
Int'l Code: 1986-101A
Perigee: 943.1 km
Apogee: 967.5 km
Inclination: 82.5 °
Period: 104.0 minutes
Semi major axis: 7326 km
RCS: 8.1003 m2 (large)
Launch date: December 18, 1986
Source: Commonwealth of Independent States (former USSR) (CIS)
Launch site: PLESETSK MISSILE AND SPACE COMPLEX (PKMTR)
Your satellite tracking list
COSMOS 2369
Track 1 satellite(s)




NASA's NSSDC Master Catalog

Two Line Element Set (TLE):
1 17241U 86101A   25186.54305067  .00000065  00000-0  44832-4 0  9999
2 17241  82.5289 196.7482 0016624  57.1653  54.8549 13.84442387947126
Source of the keplerian elements: AFSPC